Time,TemperatureF,DewpointF,PressureIn,WindDirection,WindDirectionDegrees,WindSpeedMPH,WindSpeedGustMPH,Humidity,HourlyPrecipIn,Conditions,Clouds,dailyrainin,SoftwareType,DateUTC
2013-01-08 00:24:00,20.2,19.0,30.32,NE,36,0.0,1.0,94,0.00,,,0.00,weatherlink.com 1.10,2013-01-08 05:24:00,
2013-01-08 00:42:00,20.0,19.0,30.33,SSW,207,1.0,2.0,95,0.00,,,0.00,weatherlink.com 1.10,2013-01-08 05:42:00,
2013-01-08 01:02:00,19.7,18.0,30.32,NW,307,0.0,1.0,94,0.00,,,0.00,weatherlink.com 1.10,2013-01-08 06:02:00,
2013-01-08 01:20:00,19.4,18.0,30.31,NW,308,0.0,0.0,95,0.00,,,0.00,weatherlink.com 1.10,2013-01-08 06:20:00,
2013-01-08 01:38:00,19.4,18.0,30.30,NW,307,0.0,1.0,94,0.00,,,0.00,weatherlink.com 1.10,2013-01-08 06:38:00,
2013-01-08 01:58:00,18.5,17.0,30.32,NW,308,0.0,1.0,94,0.00,,,0.00,weatherlink.com 1.10,2013-01-08 06:58:00,
2013-01-08 02:15:00,17.9,17.0,30.34,NW,308,0.0,1.0,94,0.00,,,0.00,weatherlink.com 1.10,2013-01-08 07:15:00,
2013-01-08 02:35:00,19.2,18.0,30.34,NW,307,0.0,1.0,96,0.00,,,0.00,weatherlink.com 1.10,2013-01-08 07:35:00,
2013-01-08 02:53:00,19.2,18.0,30.34,NW,307,0.0,0.0,95,0.00,,,0.00,weatherlink.com 1.10,2013-01-08 07:53:00,
2013-01-08 03:11:00,18.7,18.0,30.34,NW,308,0.0,0.0,95,0.00,,,0.00,weatherlink.com 1.10,2013-01-08 08:11:00,
2013-01-08 03:31:00,18.6,17.0,30.34,NW,308,0.0,1.0,95,0.00,,,0.00,weatherlink.com 1.10,2013-01-08 08:31:00,
2013-01-08 03:49:00,18.2,17.0,30.34,NW,305,0.0,1.0,94,0.00,,,0.00,weatherlink.com 1.10,2013-01-08 08:49:00,
2013-01-08 04:07:00,18.2,17.0,30.34,NW,305,0.0,0.0,95,0.00,,,0.00,weatherlink.com 1.10,2013-01-08 09:07:00,
2013-01-08 04:27:00,17.3,16.0,30.35,NW,305,0.0,0.0,94,0.00,,,0.00,weatherlink.com 1.10,2013-01-08 09:27:00,
2013-01-08 04:45:00,17.3,16.0,30.34,NW,314,0.0,0.0,94,0.00,,,0.00,weatherlink.com 1.10,2013-01-08 09:45:00,
2013-01-08 05:03:00,17.8,17.0,30.34,NW,314,0.0,0.0,95,0.00,,,0.00,weatherlink.com 1.10,2013-01-08 10:03:00,
2013-01-08 05:21:00,17.4,16.0,30.35,NW,314,0.0,0.0,95,0.00,,,0.00,weatherlink.com 1.10,2013-01-08 10:21:00,
2013-01-08 05:41:00,16.5,15.0,30.37,NW,313,0.0,0.0,94,0.00,,,0.00,weatherlink.com 1.10,2013-01-08 10:41:00,
2013-01-08 05:59:00,16.5,15.0,30.37,NW,314,0.0,1.0,94,0.00,,,0.00,weatherlink.com 1.10,2013-01-08 10:59:00,
2013-01-08 06:18:00,17.3,16.0,30.37,NW,314,0.0,1.0,94,0.00,,,0.00,weatherlink.com 1.10,2013-01-08 11:18:00,
2013-01-08 06:37:00,17.4,16.0,30.38,NW,314,0.0,0.0,95,0.00,,,0.00,weatherlink.com 1.10,2013-01-08 11:37:00,
2013-01-08 06:55:00,16.7,15.0,30.39,NW,314,0.0,0.0,94,0.00,,,0.00,weatherlink.com 1.10,2013-01-08 11:55:00,
2013-01-08 07:13:00,16.2,15.0,30.39,NW,314,0.0,0.0,94,0.00,,,0.00,weatherlink.com 1.10,2013-01-08 12:13:00,
2013-01-08 07:33:00,16.8,15.0,30.39,NW,314,0.0,0.0,94,0.00,,,0.00,weatherlink.com 1.10,2013-01-08 12:33:00,
2013-01-08 07:51:00,16.5,15.0,30.40,East,94,0.0,1.0,93,0.00,,,0.00,weatherlink.com 1.10,2013-01-08 12:51:00,
2013-01-08 08:09:00,16.8,15.0,30.40,East,95,0.0,0.0,94,0.00,,,0.00,weatherlink.com 1.10,2013-01-08 13:09:00,
2013-01-08 08:29:00,17.7,16.0,30.41,East,95,0.0,0.0,94,0.00,,,0.00,weatherlink.com 1.10,2013-01-08 13:29:00,
2013-01-08 08:47:00,18.6,17.0,30.41,NNE,12,0.0,1.0,94,0.00,,,0.00,weatherlink.com 1.10,2013-01-08 13:47:00,
2013-01-08 09:05:00,21.9,21.0,30.41,NE,46,0.0,0.0,96,0.00,,,0.00,weatherlink.com 1.10,2013-01-08 14:05:00,
2013-01-08 09:23:00,23.9,23.0,30.41,ENE,59,0.0,1.0,95,0.00,,,0.00,weatherlink.com 1.10,2013-01-08 14:23:00,
2013-01-08 09:43:00,26.3,24.0,30.41,East,97,0.0,2.0,90,0.00,,,0.00,weatherlink.com 1.10,2013-01-08 14:43:00,
2013-01-08 10:01:00,28.1,25.0,30.42,NE,50,1.0,2.0,88,0.00,,,0.00,weatherlink.com 1.10,2013-01-08 15:01:00,
2013-01-08 10:19:00,31.9,26.0,30.42,NNE,19,3.0,5.0,80,0.00,,,0.00,weatherlink.com 1.10,2013-01-08 15:19:00,
2013-01-08 10:39:00,35.0,26.0,30.42,East,82,3.0,8.0,69,0.00,,,0.00,weatherlink.com 1.10,2013-01-08 15:39:00,
2013-01-08 10:57:00,35.9,26.0,30.42,ENE,59,2.0,11.0,67,0.00,,,0.00,weatherlink.com 1.10,2013-01-08 15:57:00,
2013-01-08 11:15:00,36.9,26.0,30.42,ENE,61,2.0,7.0,66,0.00,,,0.00,weatherlink.com 1.10,2013-01-08 16:15:00,
2013-01-08 11:35:00,38.8,27.0,30.41,NE,53,1.0,6.0,63,0.00,,,0.00,weatherlink.com 1.10,2013-01-08 16:35:00,
2013-01-08 11:53:00,41.6,27.0,30.40,NE,56,7.0,12.0,57,0.00,,,0.00,weatherlink.com 1.10,2013-01-08 16:53:00,
2013-01-08 12:11:00,43.0,28.0,30.39,ESE,115,3.0,9.0,55,0.00,,,0.00,weatherlink.com 1.10,2013-01-08 17:11:00,
2013-01-08 12:31:00,42.7,27.0,30.39,ENE,61,3.0,13.0,55,0.01,,,0.01,weatherlink.com 1.10,2013-01-08 17:31:00,
2013-01-08 12:49:00,43.3,28.0,30.39,East,101,1.0,9.0,55,0.01,,,0.01,weatherlink.com 1.10,2013-01-08 17:49:00,
2013-01-08 13:07:00,43.2,28.0,30.38,NE,54,3.0,11.0,55,0.01,,,0.01,weatherlink.com 1.10,2013-01-08 18:07:00,
2013-01-08 13:27:00,43.5,29.0,30.39,NE,46,6.0,14.0,56,0.00,,,0.01,weatherlink.com 1.10,2013-01-08 18:27:00,
2013-01-08 13:45:00,44.1,29.0,30.39,East,80,8.0,11.0,55,0.01,,,0.02,weatherlink.com 1.10,2013-01-08 18:45:00,
2013-01-08 14:03:00,43.9,28.0,30.39,ENE,63,8.0,12.0,55,0.01,,,0.02,weatherlink.com 1.10,2013-01-08 19:03:00,
2013-01-08 14:23:00,43.5,29.0,30.39,East,86,9.0,11.0,56,0.01,,,0.02,weatherlink.com 1.10,2013-01-08 19:23:00,
2013-01-08 14:41:00,44.4,29.0,30.39,ENE,72,2.0,8.0,56,0.01,,,0.02,weatherlink.com 1.10,2013-01-08 19:41:00,
2013-01-08 14:59:00,44.6,29.0,30.38,NE,37,3.0,9.0,55,0.00,,,0.02,weatherlink.com 1.10,2013-01-08 19:59:00,
2013-01-08 15:17:00,44.0,29.0,30.39,NE,49,2.0,8.0,56,0.00,,,0.02,weatherlink.com 1.10,2013-01-08 20:17:00,
2013-01-08 15:37:00,43.1,29.0,30.39,NNE,26,6.0,6.0,59,0.00,,,0.02,weatherlink.com 1.10,2013-01-08 20:37:00,
2013-01-08 15:55:00,43.5,29.0,30.40,ENE,67,2.0,6.0,58,0.00,,,0.02,weatherlink.com 1.10,2013-01-08 20:55:00,
2013-01-08 16:13:00,43.5,29.0,30.40,NE,54,2.0,3.0,58,0.00,,,0.02,weatherlink.com 1.10,2013-01-08 21:13:00,
2013-01-08 16:33:00,43.7,30.0,30.41,NE,51,2.0,4.0,58,0.00,,,0.02,weatherlink.com 1.10,2013-01-08 21:33:00,
2013-01-08 16:51:00,42.3,29.0,30.41,NE,51,1.0,4.0,60,0.00,,,0.02,weatherlink.com 1.10,2013-01-08 21:51:00,
2013-01-08 17:10:00,40.8,29.0,30.40,NE,39,0.0,1.0,63,0.00,,,0.02,weatherlink.com 1.10,2013-01-08 22:10:00,
2013-01-08 17:28:00,39.4,29.0,30.40,NE,40,0.0,1.0,66,0.00,,,0.02,weatherlink.com 1.10,2013-01-08 22:28:00,
2013-01-08 17:46:00,38.0,29.0,30.40,NE,47,0.0,1.0,69,0.00,,,0.02,weatherlink.com 1.10,2013-01-08 22:46:00,
2013-01-08 18:06:00,37.9,29.0,30.40,NNE,26,0.0,1.0,70,0.00,,,0.02,weatherlink.com 1.10,2013-01-08 23:06:00,
2013-01-08 18:23:00,37.8,29.0,30.40,NNE,26,0.0,0.0,70,0.00,,,0.02,weatherlink.com 1.10,2013-01-08 23:23:00,
2013-01-08 18:43:00,37.2,29.0,30.40,NNE,25,0.0,0.0,71,0.00,,,0.02,weatherlink.com 1.10,2013-01-08 23:43:00,
2013-01-08 19:01:00,36.1,29.0,30.40,NNE,26,0.0,1.0,74,0.00,,,0.02,weatherlink.com 1.10,2013-01-09 00:01:00,
2013-01-08 19:19:00,36.5,29.0,30.40,NNE,25,0.0,0.0,74,0.00,,,0.02,weatherlink.com 1.10,2013-01-09 00:19:00,
2013-01-08 19:39:00,35.0,28.0,30.40,NNE,26,0.0,1.0,76,0.00,,,0.02,weatherlink.com 1.10,2013-01-09 00:39:00,
2013-01-08 19:57:00,33.9,28.0,30.40,NNE,26,0.0,1.0,80,0.00,,,0.02,weatherlink.com 1.10,2013-01-09 00:57:00,
2013-01-08 20:15:00,34.3,29.0,30.40,NNE,25,0.0,1.0,80,0.00,,,0.02,weatherlink.com 1.10,2013-01-09 01:15:00,
2013-01-08 20:33:00,34.0,28.0,30.40,NNE,26,0.0,0.0,80,0.00,,,0.02,weatherlink.com 1.10,2013-01-09 01:33:00,
2013-01-08 20:53:00,32.6,28.0,30.40,NNE,26,0.0,1.0,84,0.00,,,0.02,weatherlink.com 1.10,2013-01-09 01:53:00,
2013-01-08 21:11:00,31.7,27.0,30.40,NNE,26,0.0,0.0,83,0.00,,,0.02,weatherlink.com 1.10,2013-01-09 02:11:00,
2013-01-08 21:29:00,31.8,28.0,30.40,NNE,26,0.0,0.0,85,0.00,,,0.02,weatherlink.com 1.10,2013-01-09 02:29:00,
2013-01-08 21:49:00,32.3,28.0,30.39,NNE,27,0.0,0.0,83,0.00,,,0.02,weatherlink.com 1.10,2013-01-09 02:49:00,
2013-01-08 22:07:00,30.8,27.0,30.40,East,90,0.0,2.0,85,0.00,,,0.02,weatherlink.com 1.10,2013-01-09 03:07:00,
2013-01-08 22:27:00,29.4,27.0,30.39,East,91,0.0,1.0,89,0.00,,,0.02,weatherlink.com 1.10,2013-01-09 03:27:00,
2013-01-08 22:43:00,29.4,26.0,30.39,SE,131,1.0,1.0,88,0.00,,,0.02,weatherlink.com 1.10,2013-01-09 03:43:00,
2013-01-08 23:03:00,29.4,27.0,30.39,SE,131,0.0,1.0,89,0.00,,,0.02,weatherlink.com 1.10,2013-01-09 04:03:00,
2013-01-08 23:20:00,29.1,27.0,30.38,NNE,19,0.0,0.0,91,0.00,,,0.02,weatherlink.com 1.10,2013-01-09 04:20:00,
2013-01-08 23:55:00,27.8,25.0,30.36,ESE,108,0.0,3.0,90,0.00,,,0.02,weatherlink.com 1.10,2013-01-09 04:55:00,